| time (UTC) | temp F | wind direction | speed MPH | gust MPH | rain 1hr in | rain 24hr in | rain mn in | humidity % | barometer mb |
| 20260507014541 | 51 | 274 | 2.0 | 4.0 | 0.00 | 0.00 | 0.00 | 47 | 1012.1 |
| 20260507013026 | 51 | 263 | 4.0 | 10.0 | 0.00 | 0.00 | 0.00 | 44 | 1012.0 |
| 20260507011528 | 51 | 264 | 3.0 | 10.0 | 0.00 | 0.00 | 0.00 | 48 | 1011.8 |
| 20260507010027 | 51 | 242 | 2.0 | 4.0 | 0.00 | 0.00 | 0.00 | 48 | 1011.7 |
| 20260507004525 | 51 | 242 | 2.0 | 4.0 | 0.00 | 0.00 | 0.00 | 47 | 1011.8 |
| 20260507003024 | 51 | 242 | 2.0 | 5.0 | 0.00 | 0.00 | 0.00 | 47 | 1011.5 |
| 20260507001527 | 51 | 234 | 2.0 | 4.0 | 0.00 | 0.00 | 0.00 | 47 | 1011.5 |
| 20260507000032 | 51 | 231 | 3.0 | 6.0 | 0.00 | 0.00 | 0.00 | 45 | 1011.4 |
| 20260506234523 | 52 | 252 | 0.0 | 7.0 | 0.00 | 0.00 | 0.00 | 46 | 1011.5 |
| 20260506233022 | 52 | 265 | 1.0 | 8.0 | 0.00 | 0.00 | 0.00 | 46 | 1011.5 |
| 20260506231521 | 52 | 246 | 3.0 | 9.0 | 0.00 | 0.00 | 0.00 | 44 | 1011.4 |
| 20260506230021 | 52 | 250 | 3.0 | 10.0 | 0.00 | 0.00 | 0.00 | 44 | 1011.5 |
| 20260506224521 | 52 | 234 | 5.0 | 10.0 | 0.00 | 0.00 | 0.00 | 44 | 1011.6 |
| 20260506223020 | 52 | 259 | 4.0 | 12.0 | 0.00 | 0.00 | 0.00 | 44 | 1011.7 |
| 20260506221520 | 52 | 273 | 7.0 | 12.0 | 0.00 | 0.00 | 0.00 | 44 | 1011.7 |
| 20260506220023 | 52 | 269 | 4.0 | 12.0 | 0.00 | 0.00 | 0.00 | 44 | 1011.6 |
| 20260506214518 | 52 | 244 | 7.0 | 16.0 | 0.00 | 0.00 | 0.00 | 44 | 1011.5 |
| 20260506213017 | 52 | 275 | 7.0 | 14.0 | 0.00 | 0.00 | 0.00 | 43 | 1011.6 |
| 20260506211518 | 53 | 242 | 9.0 | 16.0 | 0.00 | 0.00 | 0.00 | 43 | 1011.6 |
| 20260506210015 | 53 | 242 | 5.0 | 13.0 | 0.00 | 0.00 | 0.00 | 45 | 1011.5 |
| 20260506204520 | 53 | 257 | 8.0 | 15.0 | 0.00 | 0.00 | 0.00 | 42 | 1011.6 |
| 20260506203012 | 53 | 263 | 5.0 | 11.0 | 0.00 | 0.00 | 0.00 | 45 | 1011.6 |
| 20260506201511 | 52 | 307 | 2.0 | 11.0 | 0.00 | 0.00 | 0.00 | 45 | 1011.7 |
| 20260506200007 | 51 | 277 | 5.0 | 11.0 | 0.00 | 0.00 | 0.00 | 46 | 1011.9 |
| 20260506194512 | 51 | 249 | 3.0 | 9.0 | 0.00 | 0.00 | 0.00 | 49 | 1012.0 |
| 20260506193004 | 51 | 345 | 2.0 | 13.0 | 0.00 | 0.00 | 0.00 | 47 | 1012.1 |
| 20260506191503 | 51 | 258 | 4.0 | 13.0 | 0.00 | 0.00 | 0.00 | 47 | 1012.1 |
| 20260506190002 | 50 | 227 | 7.0 | 17.0 | 0.00 | 0.00 | 0.00 | 46 | 1012.2 |
| 20260506184600 | 50 | 258 | 6.0 | 15.0 | 0.00 | 0.00 | 0.00 | 47 | 1012.3 |
| 20260506183059 | 50 | 298 | 4.0 | 10.0 | 0.00 | 0.00 | 0.00 | 49 | 1012.4 |
| 20260506181558 | 50 | 287 | 3.0 | 10.0 | 0.00 | 0.00 | 0.00 | 48 | 1012.3 |
| 20260506180105 | 49 | 284 | 1.0 | 9.0 | 0.00 | 0.00 | 0.00 | 50 | 1012.4 |
| 20260506174556 | 49 | 18 | 4.0 | 10.0 | 0.00 | 0.00 | 0.00 | 49 | 1012.6 |
| 20260506173058 | 49 | 360 | 6.0 | 11.0 | 0.00 | 0.00 | 0.00 | 49 | 1012.6 |
| 20260506171558 | 49 | 340 | 5.0 | 11.0 | 0.00 | 0.00 | 0.00 | 49 | 1012.5 |
| 20260506170104 | 49 | 334 | 3.0 | 9.0 | 0.00 | 0.00 | 0.00 | 53 | 1012.7 |
| 20260506164553 | 49 | 347 | 4.0 | 10.0 | 0.00 | 0.00 | 0.00 | 51 | 1012.8 |
| 20260506163107 | 48 | 243 | 2.0 | 8.0 | 0.00 | 0.00 | 0.00 | 55 | 1013.0 |
| 20260506161545 | 47 | 351 | 6.0 | 10.0 | 0.00 | 0.00 | 0.00 | 60 | 1013.0 |
| 20260506160042 | 47 | 274 | 3.0 | 8.0 | 0.00 | 0.00 | 0.00 | 61 | 1012.9 |
| 20260506154602 | 47 | 268 | 6.0 | 10.0 | 0.00 | 0.00 | 0.00 | 63 | 1013.1 |
| 20260506153049 | 46 | 5 | 6.0 | 9.0 | 0.00 | 0.00 | 0.00 | 62 | 1013.0 |
| 20260506151536 | 46 | 5 | 4.0 | 11.0 | 0.00 | 0.00 | 0.00 | 64 | 1013.0 |
| 20260506150034 | 45 | 322 | 4.0 | 10.0 | 0.00 | 0.00 | 0.00 | 64 | 1013.0 |
| 20260506144531 | 45 | 333 | 6.0 | 12.0 | 0.00 | 0.00 | 0.00 | 64 | 1012.9 |
| 20260506143035 | 45 | 41 | 7.0 | 14.0 | 0.00 | 0.00 | 0.00 | 63 | 1012.5 |
| 20260506141529 | 44 | 53 | 4.0 | 12.0 | 0.00 | 0.00 | 0.00 | 66 | 1012.5 |
| 20260506140026 | 44 | 5 | 5.0 | 11.0 | 0.00 | 0.00 | 0.00 | 67 | 1012.5 |
| 20260506134524 | 44 | 344 | 7.0 | 13.0 | 0.00 | 0.00 | 0.00 | 67 | 1012.4 |
| 20260506133023 | 44 | 18 | 7.0 | 14.0 | 0.00 | 0.00 | 0.00 | 67 | 1012.3 |
| 20260506131520 | 43 | 360 | 5.0 | 10.0 | 0.00 | 0.00 | 0.00 | 69 | 1012.1 |
| 20260506130022 | 42 | 11 | 3.0 | 10.0 | 0.00 | 0.00 | 0.00 | 70 | 1012.0 |
| 20260506124518 | 42 | 346 | 4.0 | 10.0 | 0.00 | 0.00 | 0.00 | 70 | 1011.9 |
| 20260506123015 | 42 | 63 | 3.0 | 10.0 | 0.00 | 0.00 | 0.00 | 74 | 1011.7 |
| 20260506121512 | 41 | 14 | 3.0 | 9.0 | 0.00 | 0.00 | 0.00 | 75 | 1011.5 |
| 20260506120012 | 40 | 48 | 5.0 | 10.0 | 0.00 | 0.00 | 0.00 | 75 | 1011.2 |
| 20260506114511 | 39 | 55 | 4.0 | 9.0 | 0.00 | 0.00 | 0.00 | 77 | 1011.3 |
| 20260506113010 | 38 | 30 | 2.0 | 5.0 | 0.00 | 0.00 | 0.00 | 78 | 1011.4 |
| 20260506111508 | 38 | 37 | 2.0 | 4.0 | 0.00 | 0.00 | 0.00 | 80 | 1011.3 |
| 20260506110004 | 37 | 51 | 1.0 | 5.0 | 0.00 | 0.00 | 0.00 | 80 | 1010.9 |
| 20260506104502 | 37 | 47 | 2.0 | 6.0 | 0.00 | 0.00 | 0.00 | 80 | 1010.7 |
| 20260506103058 | 37 | 46 | 3.0 | 5.0 | 0.00 | 0.00 | 0.00 | 80 | 1010.3 |
| 20260506101604 | 38 | 59 | 4.0 | 8.0 | 0.00 | 0.00 | 0.00 | 81 | 1009.9 |
| 20260506100053 | 38 | 53 | 1.0 | 8.0 | 0.00 | 0.00 | 0.00 | 81 | 1009.7 |
| 20260506094612 | 38 | 45 | 2.0 | 11.0 | 0.00 | 0.00 | 0.00 | 81 | 1009.5 |
| 20260506093053 | 39 | 69 | 1.0 | 5.0 | 0.00 | 0.00 | 0.00 | 80 | 1009.4 |
| 20260506091548 | 39 | 74 | 4.0 | 9.0 | 0.00 | 0.00 | 0.00 | 79 | 1009.3 |
| 20260506090046 | 39 | 72 | 3.0 | 7.0 | 0.00 | 0.00 | 0.00 | 79 | 1009.5 |
| 20260506084546 | 39 | 49 | 2.0 | 9.0 | 0.00 | 0.00 | 0.00 | 78 | 1009.6 |
| 20260506083042 | 40 | 33 | 4.0 | 9.0 | 0.00 | 0.00 | 0.00 | 77 | 1009.5 |
| 20260506081538 | 40 | 53 | 6.0 | 11.0 | 0.00 | 0.00 | 0.00 | 76 | 1009.4 |
| 20260506073028 | 41 | 42 | 2.0 | 5.0 | 0.00 | 0.00 | 0.00 | 82 | 1008.9 |
| 20260506071531 | 41 | 51 | 1.0 | 3.0 | 0.00 | 0.00 | 0.00 | 83 | 1008.9 |
| 20260506061528 | 42 | 51 | 0.0 | 1.0 | 0.00 | 0.00 | 0.00 | 84 | 1009.0 |
| 20260506044509 | 44 | 329 | 1.0 | 4.0 | 0.00 | 0.00 | 0.00 | 85 | 1008.4 |
| 20260506043006 | 44 | 329 | 0.0 | 2.0 | 0.00 | 0.00 | 0.00 | 84 | 1008.1 |
| 20260506041503 | 44 | 329 | 0.0 | 3.0 | 0.00 | 0.00 | 0.00 | 84 | 1008.4 |
| 20260506040105 | 45 | 329 | 0.0 | 2.0 | 0.00 | 0.00 | 0.00 | 83 | 1008.3 |
| 20260506040001 | 45 | 329 | 0.0 | 2.0 | 0.00 | 0.00 | 0.00 | 83 | 1008.3 |
| 20260506034613 | 45 | 329 | 0.0 | 2.0 | 0.00 | 0.00 | 0.00 | 82 | 1008.3 |
| 20260506033055 | 46 | 329 | 0.0 | 3.0 | 0.00 | 0.00 | 0.00 | 81 | 1008.1 |
| 20260506031600 | 46 | 329 | 2.0 | 4.0 | 0.00 | 0.00 | 0.00 | 79 | 1008.1 |
| 20260506030051 | 47 | 329 | 3.0 | 5.0 | 0.00 | 0.00 | 0.00 | 78 | 1008.0 |
| 20260506024551 | 49 | 5 | 2.0 | 9.0 | 0.00 | 0.00 | 0.00 | 75 | 1007.7 |
| 20260506023047 | 50 | 334 | 2.0 | 5.0 | 0.00 | 0.00 | 0.00 | 63 | 1007.7 |
| 20260506021545 | 51 | 293 | 2.0 | 8.0 | 0.00 | 0.00 | 0.00 | 49 | 1007.5 |
| 20260506020043 | 52 | 275 | 4.0 | 9.0 | 0.00 | 0.00 | 0.00 | 47 | 1007.3 |